Showing default

COSMOS 1913, 18792

Orbit data source: Space-Track

COSMOS 1913, 18792 is a payload satellite owned by UNKS (CIS) in LEO that was launched on Fri, 15 Jan 1988 UTC via a TSIKLON-3 launch vehicle from the Plesetsk Missile And Space Complex (PKMTR). Payload-class satellites include a variety of spacecraft equipped with specific instruments for various scientific and technological missions. These include communications satellites like Starlink; space stations such as the ISS; scientific satellites like the Hubble; Earth observation satellites from companies like Planet Labs, Umbra, and HawkEye 360; GPS; miniature CubeSats for education and research; and military/defense satellites.

Loading next visibility...
Identifier
18792, 1988-002E
Orbit
LEO
Country
Flag of CISCIS
Related business
Manufacturer
NPO PM
Mission
Defense Communications
Bus & Motor
STRELA-3, Unknown motor
Mass
225 kg wet, 225 kg dry
Launch date (UTC)
1988-01-15 (38 years ago)
Launch vehicle
TSIKLON-3
Launch site
Plesetsk Missile And Space Complex (PKMTR)
Object type
Payload
Rocket body
Debris
Shape & HBR
Cyl, 0.8 m
Radar Cross Section
1.257 m², Medium (>0.1 m² and < 1m²)

Expand to show TLE details & history
Last TLE update: 1 day ago

TLE from 1 day ago
0 COSMOS 1913
1 18792U 88002E   25305.61286565  .00000033  00000-0  11853-3 0  9996
2 18792  82.6035   2.3739 0012969 222.4383 290.8126 12.65739866745960
Epoch: 2025-11-01T14:42Z
TLE epoch observation values (Epoch: 2025-11-01T14:42:31.592Z)
Latitude
26.68026°
Longitude
-83.11994°
Altitude
1,398.882 km
Speed
7.164 km/s
True Right ascension
11h 54m 36s
True Declination
26° 33' 14"
Sunlit
Object was in daylight at epoch
Visualization orbit readout
Latitude
Unknown
Longitude
Unknown
Altitude
Unknown
Speed
Unknown
Apparent Right ascension
Unknown
Apparent Declination
Unknown
Sunlit
N/A
Visualization observer readout
Local Sidereal Time
12:28:11
Azimuth
Unknown
Elevation
Unknown
Doppler factor
Unknown
Orbital elements
Apogee altitude
1,406.74 km
Perigee altitude
1,386.574 km
Semi-major axis
7,774.794 km
Eccentricity
0.0013
Inclination
82.6035°
RAAN
2.3739°
Arg. of periapsis
222.4383°
True anomaly
290.6736°
Mean anomaly
290.8126°
Eccentric anomaly
290.74311°
Mean motion
3.16599 °/min
Orbital period
113.71 mins
BSTAR
0.00011853
Loading maneuver chart data...
Computing Atmospheric mass density...
Loading historical data...
Loading historical data...
Loading historical data...
Loading historical data...
Loading historical data...
Loading historical data...
Loading historical data...

Documentation

Showing up to 5 results
|